Time,TemperatureF,DewpointF,PressureIn,WindDirection,WindDirectionDegrees,WindSpeedMPH,WindSpeedGustMPH,Humidity,HourlyPrecipIn,Conditions,Clouds,dailyrainin,SoftwareType,DateUTC
2013-08-23 00:24:00,77.0,77.0,30.03,North,0,0.0,0.0,100,99.99,,,-99.99,,2013-08-23 04:24:00,
2013-08-23 00:54:00,78.0,78.0,30.02,North,0,0.0,0.0,100,99.99,,,-99.99,,2013-08-23 04:54:00,
2013-08-23 01:22:00,78.0,78.0,30.01,North,0,0.0,0.0,100,99.99,,,-99.99,,2013-08-23 05:22:00,
2013-08-23 01:53:00,78.0,78.0,30.01,North,0,0.0,0.0,100,99.99,,,-99.99,,2013-08-23 05:53:00,
2013-08-23 02:22:00,77.0,77.0,29.99,North,0,0.0,0.0,100,99.99,,,-99.99,,2013-08-23 06:22:00,
2013-08-23 02:42:00,77.0,77.0,29.99,North,0,0.0,0.0,100,99.99,,,-99.99,,2013-08-23 06:42:00,
2013-08-23 02:52:00,77.0,77.0,29.99,North,0,0.0,0.0,100,99.99,,,-99.99,,2013-08-23 06:52:00,
2013-08-23 03:22:00,77.0,77.0,29.98,North,0,0.0,0.0,100,99.99,,,-99.99,,2013-08-23 07:22:00,
2013-08-23 03:53:00,77.0,77.0,29.98,North,0,0.0,0.0,100,99.99,,,-99.99,,2013-08-23 07:53:00,
2013-08-23 04:22:00,77.0,77.0,29.98,North,0,0.0,0.0,100,99.99,,,-99.99,,2013-08-23 08:22:00,
2013-08-23 04:52:00,77.0,77.0,29.97,North,0,0.0,0.0,100,99.99,,,-99.99,,2013-08-23 08:52:00,
2013-08-23 05:21:00,77.0,77.0,29.96,North,0,0.0,0.0,100,99.99,,,-99.99,,2013-08-23 09:21:00,
2013-08-23 05:53:00,77.0,77.0,29.98,North,0,0.0,0.0,100,99.99,,,-99.99,,2013-08-23 09:53:00,
2013-08-23 06:23:00,76.0,76.0,29.98,North,0,0.0,0.0,100,99.99,,,-99.99,,2013-08-23 10:23:00,
2013-08-23 06:53:00,77.0,77.0,29.98,North,0,0.0,0.0,100,99.99,,,-99.99,,2013-08-23 10:53:00,
2013-08-23 07:22:00,76.0,76.0,29.98,North,0,0.0,0.0,100,99.99,,,-99.99,,2013-08-23 11:22:00,
2013-08-23 07:53:00,76.0,76.0,29.99,North,0,0.0,0.0,100,99.99,,,-99.99,,2013-08-23 11:53:00,
2013-08-23 08:22:00,77.0,77.0,29.99,SE,127,2.0,4.0,100,99.99,,,-99.99,,2013-08-23 12:22:00,
2013-08-23 08:52:00,79.0,79.0,30.01,SE,136,3.0,6.0,100,99.99,,,-99.99,,2013-08-23 12:52:00,
2013-08-23 09:22:00,80.0,80.0,30.01,SSE,158,3.0,6.0,100,99.99,,,-99.99,,2013-08-23 13:22:00,
2013-08-23 09:53:00,83.0,83.0,30.02,SSE,153,3.0,6.0,100,99.99,,,-99.99,,2013-08-23 13:53:00,
2013-08-23 10:22:00,85.0,80.0,30.01,SSE,150,3.0,9.0,86,99.99,,,-99.99,,2013-08-23 14:22:00,
2013-08-23 10:52:00,86.0,79.0,30.03,SSE,158,4.0,6.0,79,99.99,,,-99.99,,2013-08-23 14:52:00,
2013-08-23 11:22:00,89.0,78.0,30.02,SE,127,3.0,7.0,70,99.99,,,-99.99,,2013-08-23 15:22:00,
2013-08-23 11:54:00,90.0,78.0,30.02,SE,145,3.0,7.0,68,99.99,,,-99.99,,2013-08-23 15:54:00,
2013-08-23 12:24:00,90.0,77.0,30.02,SSE,149,5.0,9.0,65,99.99,,,-99.99,,2013-08-23 16:24:00,
2013-08-23 12:53:00,92.0,77.0,30.01,South,173,4.0,9.0,62,99.99,,,-99.99,,2013-08-23 16:53:00,
2013-08-23 13:24:00,92.0,75.0,30.00,SSE,158,5.0,10.0,57,99.99,,,-99.99,,2013-08-23 17:24:00,
2013-08-23 13:54:00,92.0,75.0,30.01,SSE,150,3.0,5.0,58,99.99,,,-99.99,,2013-08-23 17:54:00,
2013-08-23 14:22:00,92.0,75.0,29.99,ENE,70,2.0,4.0,57,99.99,,,-99.99,,2013-08-23 18:22:00,
2013-08-23 14:52:00,94.0,72.0,29.98,SSE,166,2.0,7.0,50,99.99,,,-99.99,,2013-08-23 18:52:00,
2013-08-23 15:22:00,94.0,73.0,29.96,SSE,165,2.0,7.0,51,99.99,,,-99.99,,2013-08-23 19:22:00,
2013-08-23 15:52:00,92.0,73.0,29.97,South,176,3.0,5.0,54,99.99,,,-99.99,,2013-08-23 19:52:00,
2013-08-23 16:12:00,91.0,74.0,29.97,South,173,4.0,9.0,58,99.99,,,-99.99,,2013-08-23 20:12:00,
2013-08-23 16:22:00,91.0,74.0,29.97,South,173,4.0,9.0,58,99.99,,,-99.99,,2013-08-23 20:22:00,
2013-08-23 16:52:00,94.0,72.0,29.95,South,191,2.0,6.0,50,99.99,,,-99.99,,2013-08-23 20:52:00,
2013-08-23 17:22:00,94.0,72.0,29.96,North,359,2.0,5.0,49,99.99,,,-99.99,,2013-08-23 21:22:00,
2013-08-23 17:54:00,94.0,75.0,29.96,East,80,6.0,16.0,55,99.99,,,-99.99,,2013-08-23 21:54:00,
2013-08-23 18:24:00,86.0,75.0,29.98,ESE,121,11.0,20.0,70,99.99,,,-99.99,,2013-08-23 22:24:00,
2013-08-23 18:53:00,80.0,74.0,29.97,SE,143,10.0,15.0,83,99.99,,,-99.99,,2013-08-23 22:53:00,
2013-08-23 19:22:00,78.0,75.0,29.98,North,0,0.0,0.0,91,99.99,,,-99.99,,2013-08-23 23:22:00,
2013-08-23 19:54:00,78.0,76.0,30.02,North,0,0.0,0.0,93,99.99,,,-99.99,,2013-08-23 23:54:00,
2013-08-23 20:22:00,78.0,77.0,30.01,North,0,0.0,0.0,98,99.99,,,-99.99,,2013-08-24 00:22:00,
2013-08-23 20:53:00,78.0,78.0,30.02,North,0,0.0,0.0,99,99.99,,,-99.99,,2013-08-24 00:53:00,
2013-08-23 21:22:00,78.0,78.0,30.03,North,0,0.0,0.0,100,99.99,,,-99.99,,2013-08-24 01:22:00,
2013-08-23 21:53:00,77.0,77.0,30.02,North,0,0.0,0.0,100,99.99,,,-99.99,,2013-08-24 01:53:00,
2013-08-23 22:22:00,75.0,75.0,30.03,North,0,0.0,0.0,100,99.99,,,-99.99,,2013-08-24 02:22:00,
2013-08-23 22:52:00,76.0,76.0,30.02,North,0,0.0,0.0,100,99.99,,,-99.99,,2013-08-24 02:52:00,
2013-08-23 23:22:00,76.0,76.0,30.01,North,0,0.0,0.0,100,99.99,,,-99.99,,2013-08-24 03:22:00,
2013-08-23 23:55:00,76.0,76.0,30.02,North,0,0.0,0.0,100,99.99,,,-99.99,,2013-08-24 03:55:00,